Flag for Switzerland Weather past 2 weeks in Altdorf, Uri, Switzerland

Now
64 °F

Mild.


Feels Like: 64 °F
Forecast: 68 / 93 °F
Wind: 1 mph from East

Location: Altdorf

Current Time: Jul 1, 2015 at 5:02:37 AM

Latest Report: Jul 1, 2015 at 4:00 AM


Visibility: N/A

Pressure: 30.08 "Hg

Humidity: 80%

Dew point: 57 °F

Location of AltdorfLocation

Historic Weather in Altdorf — Graph

°F

Altdorf temperature yesterday

Maximum temperature yesterday: 84 °F (at 6:00 PM)
Minimum temperature yesterday: 57 °F (at 7:00 AM)
Average temperature yesterday: 70 °F

Past Weeks' High & Low Weather Summary

 TemperatureHumidityPressure
High84 °F (Jun 30, 6:00 PM)96% (Jun 19, 1:00 AM)30.23 "Hg (Jun 19, 1:00 AM)
Low50 °F (Jun 24, 8:00 AM)39% (Jun 30, 6:00 PM)29.73 "Hg (Jun 22, 11:00 PM)
Average63 °F74%30.09 "Hg
* Reported Jun 16 3:00 AM — Jul 1 3:00 AM, Altdorf, Weather by CustomWeather, © 2015

Note: Actual official high and low records may vary slightly from our data, if they occured in-between our weather recording intervals... More about our weather records

Advertising

Altdorf weather history for previous 24 hours

 ConditionsComfort  
Time TempWeatherWind HumidityBarometerVisibility
3:00 AM
Wed, Jul 1
63 °FMild.1 mph84%30.08 "HgN/A
2:00 AM64 °FClear.1 mph81%30.08 "Hg19 mi
1:00 AM67 °FMild.1 mph74%30.07 "HgN/A
12:00 AM69 °FMild.2 mph70%30.07 "HgN/A
11:00 PM
Tue, Jun 30
72 °FClear.3 mph58%30.06 "Hg19 mi
10:00 PM72 °FMild.3 mph62%30.05 "HgN/A
9:00 PM74 °FMild.3 mph59%30.02 "HgN/A
8:00 PM81 °FSunny.1 mph41%29.99 "Hg16 mi
6:00 PM84 °FPleasantly warm.3 mph39%29.97 "HgN/A
4:00 PM82 °FWarm.6 mph46%30.00 "HgN/A
3:00 PM81 °FWarm.6 mph55%30.02 "HgN/A
2:00 PM78 °FSunny.9 mph58%30.04 "Hg19 mi
1:00 PM78 °FWarm.3 mph53%30.06 "HgN/A
12:00 PM74 °FMild.5 mph59%30.09 "HgN/A
11:00 AM71 °FSunny.6 mph61%30.10 "Hg19 mi
10:00 AM69 °FMild.5 mph64%30.12 "HgN/A
9:00 AM68 °FMild.No wind69%30.13 "HgN/A
8:00 AM60 °FSunny.No wind80%30.16 "Hg16 mi
7:00 AM57 °FCool.1 mph91%30.16 "HgN/A
6:00 AM59 °FCool.1 mph82%30.16 "HgN/A
Weather by CustomWeather, © 2015

See weather overviewHow to use our weather pages